Weather in Pori

Finland     61°28′53″N   21°48′53″E
temp.,
°C
wind,
m/s
gust,
m/s
humid.,
%
clouds,
%
prec.,
mm/h
press.,
hPa
HPBL,
m
20 january, thu
thu2023:00+1w4998100 1.1 984586
02:000n289881 2.2 982424
05:00−1n71396100 0.9 982872
08:00−3n81893100 3.6 9831046
11:00−1n92072100 1.5 9861440
14:00−2n91961100 1.5 9891191
17:00−4n71769100 0.0 992718
20:00−3n71772100 0.0 995822
21 january, fri
fri2123:00−2nnw7167228 0.0 997965
02:00−2n817695 0.0 1000872
05:00−3nnw716691 0.0 1003771
08:00−4nnw716700 0.0 1005771
11:00−3n7167173 0.0 1006907
14:00−3n715735 0.0 1008869
17:00−4n715735 0.0 1011790
20:00−5n615735 0.0 1014799
22 january, sat
sat2223:00−5n513745 0.0 1016604
02:00−6n412805 0.0 1019428
05:00−8n39865 0.0 1020284
08:00−9nnw26915 0.0 1021139
11:00−9n258879 0.0 1022121
14:00−7nne128393 0.0 1022102
17:00−7ene0190100 0.0 102315
20:00−6ssw1183100 0.0 102451
23 january, sun
sun2323:00−6s238583 0.0 102487
02:00−6s378296 0.0 1025161
05:00−5s3995100 0.3 1025227
08:00−3s41097100 1.2 1024272
11:00−1s51296100 0.1 1025315
14:00+1ssw51194100 0.1 1025344
17:000s512935 0.0 1024267
20:000s5139337 0.0 1023323
24 january, mon
mon2423:00+1s6179080 0.0 1021465
02:00+1ssw7178987 0.0 1019551
05:00+1ssw81589100 0.1 1016760
08:00+1ssw61393100 0.2 1014627
11:00+2ssw61394100 0.1 1013694
14:00+2sw5119393 0.1 1011529
17:00−2sw219714 0.0 101124
20:00−2sw249528 0.0 101251